SL-14 DEB, 43320

Orbit data source: Space-Track

SL-14 DEB, 43320 is space debris in LEO originally from a launch on Tue, 02 Dec 1986 UTC launched from the Plesetsk Missile And Space Complex (PKMTR). Debris objects in space refer to the collection of defunct objects orbiting the Earth. Examples of debris include non-operational satellites, rocket bodies, and fragments generated from explosions, collisions, or faulty payload assembly.

Loading next visibility...
SL-14 DEB details
Identifier
43320, 1986-094C
Orbit
LEO
Last TLE update1 month ago
Origin
Flag of CISVTS SA (CIS)
ManufacturerUnknown
MissionSpacecraft
Bus & MotorUnknown
MassUnknown
Launch date (UTC)
1986-12-02 (38 years ago)
Launch vehicleUnknown
Launch site
Plesetsk Missile And Space Complex (PKMTR)
Object type
Payload
Rocket body
Debris
Shape & HBRUnknown
Radar Cross SectionSmall (<0.1 m²)

Expand to show TLE details & history

TLE from 1 month ago
0 SL-14 DEB
1 43320U 86094C   24323.83047415  .00000059  00000-0  35906-3 0  9995
2 43320  82.6072 358.3902 0002835 224.1290 135.9563 12.42136142417333
Epoch: 2024-11-18T19:55Z
Definitive object data (Epoch: 2024-11-18T19:55:52.966Z)
Latitude-0.00009°
Longitude1.06986°
Altitude1,501.868 km
Speed7.113 km/s
True Right ascension23h 53m 33s
True Declination0° 00' 00"
Sunlit
Object was in daylight at TLE epoch
Visualization TLE readout
Latitude15.14111°
Longitude155.82672°
Altitude1,497.514 km
Speed7.118 km/s
Apparent Right ascension08h 51m 18s
Apparent Declination-10° 11' 44"
Sunlit
Object is in daylight
Visualization observer readout
Local Sidereal Time18:40:51
Azimuth306.756° NW
Elevation-48.541°
Doppler factor1
Orbital elements
Apogee altitude1,497.141 km
Perigee altitude1,492.677 km
Semi-major axis7,873.046 km
Eccentricity0.0002835
Inclination82.6072°
RAAN358.3902°
Arg. of periapsis224.129°
True anomaly135.97888°
Mean anomaly135.9563°
Eccentric anomaly135.96759°
Mean motion3.10691 °/min
BSTAR0.00035906
Orbital period115.87 mins
Loading maneuver chart data...
Loading historical data...
Loading historical data...
Loading historical data...
Loading historical data...
Loading historical data...
Loading historical data...
Loading historical data...
Other satellites on launch #94 in the year 1986 (1986-12-02 UTC)

SL-14 DEB Visibility forecast

Observer location: undefined°, undefined

Span
Click to sort rows by Start time (UTC) header in descending order
Start Az.
Max El. time (UTC)
Max El. Az.
Max El.
End time (UTC)
End Az.
15 mins2024-12-26 22:22:13.300Z155.739° SSE2024-12-26 22:30:13.300Z84.235° E35.455°2024-12-26 22:37:13.300Z21.845° NNE
14 mins2024-12-27 00:20:13.300Z225.435° WSW2024-12-27 00:27:13.300Z291.208° WNW31.922°2024-12-27 00:34:13.300Z351.15° N
11 mins2024-12-27 08:35:13.300Z25.421° NE2024-12-27 08:40:13.300Z64.928° ENE19.839°2024-12-27 08:46:13.300Z109.973° ESE
15 mins2024-12-27 10:31:13.300Z349.638° N2024-12-27 10:38:13.300Z253.182° W44.626°2024-12-27 10:46:13.300Z180.111° SSW
6 mins2024-12-27 12:31:13.300Z301.159° NW2024-12-27 12:33:13.300Z286.387° WNW13.99°2024-12-27 12:37:13.300Z257.815° W
|